Location: Mountain Grove
(34.0887°N, 86.6172°W)
Time: 22:02:33
(UTC+00:00)

Lacrosse 5 - Pass Details

Date: 14 July 2020
Orbit: 717 x 720 km, 57.0° (Epoch: 04 August)

Event Time Altitude Azimuth Distance (km) Brightness Sun altitude
Exits shadow 05:08:06 23° 39° (NE) 1,516 3.8 -33.3°
Drops below altitude 10° 05:09:56 10° 39° (NE) 2,201 4.8 -33.4°
Sets 05:12:19 0° 40° (NE) 3,124 5.6 -33.5°
